Tracking 19638 objects as of 20-May-2019
HD Live streaming from Space Station
objects crossing your sky now

OPS 6394 (FLTSATCOM 4)

Track OPS 6394 (FLTSATCOM 4) now!
OPS 6394 (FLTSATCOM 4) is classified as:


NORAD ID: 12046
Int'l Code: 1980-087A
Perigee: 36,146.3 km
Apogee: 36,190.0 km
Inclination: 13.2 °
Period: 1,455.3 minutes
Semi major axis: 42539 km
RCS: Unknown
Launch date: October 31, 1980
Source: United States (US)
Launch site: AIR FORCE EASTERN TEST RANGE (AFETR)
aabbcc
Your satellite tracking list
Your tracking list is empty




NASA's NSSDC Master Catalog

Two Line Element Set (TLE):
1 12046U 80087A   19138.43029894 -.00000179  00000-0  00000+0 0  9994
2 12046  13.1758 327.8355 0005136  40.5696 319.3916  0.98951064104568
Source of the keplerian elements: McCants